| time (UTC) | temp F | wind direction | speed MPH | gust MPH | rain 1hr in | rain 24hr in | rain mn in | humidity % | barometer mb |
| 20260503214007 | 63 | 304 | 6.0 | 16.0 | 0.00 | 0.01 | 0.00 | 28 | 1003.4 |
| 20260503213514 | 63 | 284 | 8.0 | 18.0 | 0.00 | 0.01 | 0.00 | 28 | 1003.6 |
| 20260503213004 | 63 | 304 | 8.0 | 18.0 | 0.00 | 0.01 | 0.00 | 29 | 1003.6 |
| 20260503212504 | 63 | 293 | 10.0 | 18.0 | 0.00 | 0.01 | 0.00 | 27 | 1003.5 |
| 20260503212007 | 63 | 306 | 6.0 | 16.0 | 0.00 | 0.01 | 0.00 | 28 | 1003.6 |
| 20260503211505 | 63 | 221 | 10.0 | 18.0 | 0.00 | 0.01 | 0.00 | 29 | 1003.7 |
| 20260503211003 | 63 | 311 | 7.0 | 18.0 | 0.00 | 0.01 | 0.00 | 28 | 1003.7 |
| 20260503210511 | 63 | 260 | 6.0 | 19.0 | 0.00 | 0.01 | 0.00 | 28 | 1003.7 |
| 20260503210003 | 63 | 261 | 8.0 | 19.0 | 0.00 | 0.01 | 0.00 | 28 | 1003.9 |
| 20260503205507 | 63 | 288 | 9.0 | 16.0 | 0.00 | 0.01 | 0.00 | 28 | 1003.8 |
| 20260503205008 | 63 | 301 | 10.0 | 18.0 | 0.00 | 0.01 | 0.00 | 28 | 1003.9 |
| 20260503204503 | 63 | 238 | 10.0 | 18.0 | 0.00 | 0.01 | 0.00 | 28 | 1004.0 |
| 20260503204005 | 64 | 315 | 9.0 | 18.0 | 0.00 | 0.01 | 0.00 | 28 | 1004.2 |
| 20260503203509 | 63 | 303 | 9.0 | 15.0 | 0.00 | 0.01 | 0.00 | 29 | 1004.0 |
| 20260503203008 | 63 | 245 | 7.0 | 14.0 | 0.00 | 0.01 | 0.00 | 30 | 1004.0 |
| 20260503202506 | 63 | 249 | 7.0 | 21.0 | 0.00 | 0.01 | 0.00 | 31 | 1004.3 |
| 20260503202003 | 63 | 267 | 9.0 | 21.0 | 0.00 | 0.01 | 0.00 | 30 | 1004.4 |
| 20260503201507 | 62 | 295 | 9.0 | 20.0 | 0.00 | 0.01 | 0.00 | 29 | 1004.3 |
| 20260503201007 | 62 | 346 | 11.0 | 20.0 | 0.00 | 0.01 | 0.00 | 29 | 1004.6 |
| 20260503200503 | 62 | 252 | 10.0 | 18.0 | 0.00 | 0.01 | 0.00 | 29 | 1004.4 |
| 20260503200008 | 62 | 275 | 11.0 | 17.0 | 0.00 | 0.01 | 0.00 | 29 | 1004.5 |
| 20260503195509 | 62 | 274 | 6.0 | 19.0 | 0.00 | 0.01 | 0.00 | 30 | 1004.5 |
| 20260503195001 | 62 | 331 | 8.0 | 20.0 | 0.00 | 0.01 | 0.00 | 30 | 1004.6 |
| 20260503194513 | 62 | 292 | 10.0 | 20.0 | 0.00 | 0.01 | 0.00 | 29 | 1004.7 |
| 20260503194009 | 62 | 328 | 12.0 | 20.0 | 0.00 | 0.01 | 0.00 | 29 | 1004.7 |
| 20260503193505 | 62 | 296 | 7.0 | 19.0 | 0.00 | 0.01 | 0.00 | 31 | 1004.8 |
| 20260503193011 | 62 | 331 | 10.0 | 19.0 | 0.00 | 0.01 | 0.00 | 30 | 1004.9 |
| 20260503192507 | 61 | 268 | 9.0 | 17.0 | 0.00 | 0.01 | 0.00 | 31 | 1004.9 |
| 20260503192003 | 62 | 306 | 10.0 | 18.0 | 0.00 | 0.01 | 0.00 | 30 | 1005.1 |
| 20260503191512 | 62 | 333 | 10.0 | 18.0 | 0.00 | 0.01 | 0.00 | 30 | 1005.2 |
| 20260503191009 | 62 | 322 | 8.0 | 22.0 | 0.00 | 0.01 | 0.00 | 29 | 1005.2 |
| 20260503190502 | 62 | 297 | 7.0 | 22.0 | 0.00 | 0.01 | 0.00 | 31 | 1005.3 |
| 20260503190013 | 62 | 277 | 9.0 | 18.0 | 0.00 | 0.01 | 0.00 | 29 | 1005.3 |
| 20260503185507 | 62 | 306 | 9.0 | 17.0 | 0.00 | 0.01 | 0.00 | 31 | 1005.5 |
| 20260503185002 | 61 | 253 | 6.0 | 21.0 | 0.00 | 0.01 | 0.00 | 31 | 1005.5 |
| 20260503184514 | 61 | 313 | 10.0 | 21.0 | 0.00 | 0.01 | 0.00 | 30 | 1005.6 |
| 20260503184007 | 60 | 325 | 9.0 | 18.0 | 0.00 | 0.01 | 0.00 | 31 | 1005.7 |
| 20260503183504 | 61 | 301 | 6.0 | 18.0 | 0.00 | 0.01 | 0.00 | 31 | 1005.7 |
| 20260503183015 | 61 | 301 | 11.0 | 18.0 | 0.00 | 0.01 | 0.00 | 31 | 1005.8 |
| 20260503182510 | 60 | 281 | 5.0 | 15.0 | 0.00 | 0.01 | 0.00 | 33 | 1005.8 |
| 20260503182003 | 60 | 342 | 9.0 | 22.0 | 0.00 | 0.01 | 0.00 | 30 | 1005.9 |
| 20260503181517 | 60 | 276 | 7.0 | 22.0 | 0.00 | 0.01 | 0.00 | 32 | 1006.0 |
| 20260503181007 | 60 | 290 | 10.0 | 20.0 | 0.00 | 0.01 | 0.00 | 30 | 1006.0 |
| 20260503180505 | 60 | 345 | 9.0 | 20.0 | 0.00 | 0.01 | 0.00 | 30 | 1006.2 |
| 20260503180026 | 60 | 269 | 12.0 | 20.0 | 0.00 | 0.01 | 0.00 | 30 | 1006.1 |
| 20260503175510 | 60 | 300 | 9.0 | 16.0 | 0.00 | 0.01 | 0.00 | 31 | 1006.0 |
| 20260503175003 | 59 | 261 | 7.0 | 16.0 | 0.00 | 0.01 | 0.00 | 32 | 1006.0 |
| 20260503174520 | 59 | 311 | 8.0 | 19.0 | 0.00 | 0.01 | 0.00 | 32 | 1006.0 |
| 20260503174012 | 59 | 324 | 9.0 | 19.0 | 0.00 | 0.01 | 0.00 | 31 | 1006.0 |
| 20260503173506 | 58 | 313 | 11.0 | 19.0 | 0.00 | 0.01 | 0.00 | 30 | 1006.1 |
| 20260503173037 | 58 | 332 | 10.0 | 18.0 | 0.00 | 0.01 | 0.00 | 32 | 1006.3 |
| 20260503172510 | 58 | 333 | 11.0 | 18.0 | 0.00 | 0.01 | 0.00 | 32 | 1006.5 |
| 20260503172003 | 58 | 313 | 9.0 | 24.0 | 0.00 | 0.01 | 0.00 | 34 | 1006.4 |
| 20260503171533 | 58 | 254 | 11.0 | 24.0 | 0.00 | 0.01 | 0.00 | 32 | 1006.5 |
| 20260503171010 | 57 | 318 | 12.0 | 23.0 | 0.00 | 0.01 | 0.00 | 33 | 1006.6 |
| 20260503170506 | 57 | 324 | 13.0 | 23.0 | 0.00 | 0.01 | 0.00 | 32 | 1006.7 |
| 20260503151006 | 52 | 304 | 8.0 | 16.0 | 0.00 | 0.01 | 0.00 | 41 | 1006.8 |
| 20260503150509 | 52 | 317 | 7.0 | 16.0 | 0.00 | 0.01 | 0.00 | 42 | 1006.7 |
| 20260503131006 | 45 | 9 | 10.0 | 15.0 | 0.00 | 0.01 | 0.00 | 72 | 1006.6 |
| 20260503130509 | 44 | 325 | 9.0 | 16.0 | 0.00 | 0.01 | 0.00 | 74 | 1006.5 |
| 20260503110508 | 42 | 288 | 3.0 | 9.0 | 0.00 | 0.01 | 0.00 | 91 | 1005.5 |
| 20260503090508 | 39 | 326 | 0.0 | 0.0 | 0.00 | 0.01 | 0.00 | 92 | 1006.0 |
| 20260503081518 | 40 | 9 | 0.0 | 0.0 | 0.00 | 0.01 | 0.00 | 91 | 1005.9 |
| 20260503081008 | 40 | 9 | 0.0 | 0.0 | 0.00 | 0.01 | 0.00 | 91 | 1005.9 |
| 20260503080508 | 40 | 9 | 0.0 | 0.0 | 0.00 | 0.01 | 0.00 | 91 | 1006.0 |
| 20260503072512 | 42 | 114 | 0.0 | 0.0 | 0.00 | 0.01 | 0.00 | 88 | 1006.1 |
| 20260503072010 | 43 | 114 | 0.0 | 0.0 | 0.00 | 0.01 | 0.00 | 88 | 1006.1 |
| 20260503071517 | 43 | 114 | 0.0 | 0.0 | 0.00 | 0.01 | 0.00 | 88 | 1006.2 |
| 20260503071007 | 43 | 114 | 0.0 | 0.0 | 0.00 | 0.01 | 0.00 | 88 | 1006.3 |
| 20260503070507 | 44 | 114 | 0.0 | 0.0 | 0.00 | 0.01 | 0.00 | 88 | 1006.2 |
| 20260503055007 | 47 | 114 | 0.0 | 0.0 | 0.00 | 0.01 | 0.00 | 85 | 1006.9 |
| 20260503054508 | 47 | 114 | 0.0 | 0.0 | 0.00 | 0.01 | 0.00 | 85 | 1006.9 |
| 20260503054003 | 47 | 114 | 0.0 | 0.0 | 0.00 | 0.01 | 0.00 | 85 | 1006.9 |
| 20260503053506 | 47 | 114 | 0.0 | 0.0 | 0.00 | 0.01 | 0.00 | 84 | 1007.0 |
| 20260503053007 | 47 | 114 | 0.0 | 1.0 | 0.00 | 0.01 | 0.00 | 85 | 1007.0 |
| 20260503052505 | 47 | 114 | 0.0 | 1.0 | 0.00 | 0.01 | 0.00 | 84 | 1007.1 |
| 20260503052009 | 47 | 114 | 0.0 | 0.0 | 0.00 | 0.01 | 0.00 | 85 | 1007.0 |
| 20260503051504 | 47 | 114 | 0.0 | 0.0 | 0.00 | 0.01 | 0.00 | 84 | 1007.0 |
| 20260503051003 | 47 | 114 | 0.0 | 0.0 | 0.00 | 0.01 | 0.00 | 84 | 1007.0 |
| 20260503050508 | 47 | 114 | 0.0 | 0.0 | 0.00 | 0.01 | 0.00 | 84 | 1007.1 |
| 20260503050003 | 47 | 114 | 0.0 | 1.0 | 0.00 | 0.01 | 0.00 | 84 | 1007.1 |
| 20260503045503 | 47 | 114 | 0.0 | 2.0 | 0.00 | 0.01 | 0.01 | 84 | 1007.1 |
| 20260503045007 | 47 | 115 | 0.0 | 2.0 | 0.00 | 0.01 | 0.01 | 84 | 1007.2 |
| 20260503044505 | 48 | 114 | 0.0 | 2.0 | 0.00 | 0.01 | 0.01 | 84 | 1007.2 |
| 20260503044006 | 48 | 98 | 1.0 | 2.0 | 0.00 | 0.01 | 0.01 | 84 | 1007.1 |
| 20260503043510 | 48 | 125 | 0.0 | 2.0 | 0.00 | 0.01 | 0.01 | 84 | 1007.1 |
| 20260503043006 | 48 | 125 | 0.0 | 2.0 | 0.00 | 0.01 | 0.01 | 84 | 1007.2 |
| 20260503042506 | 48 | 125 | 1.0 | 2.0 | 0.00 | 0.01 | 0.01 | 84 | 1007.3 |
| 20260503042011 | 48 | 130 | 1.0 | 3.0 | 0.00 | 0.01 | 0.01 | 84 | 1007.2 |
| 20260503041506 | 48 | 94 | 1.0 | 3.0 | 0.00 | 0.01 | 0.01 | 84 | 1007.2 |
| 20260503041006 | 48 | 127 | 0.0 | 4.0 | 0.00 | 0.01 | 0.01 | 84 | 1007.2 |
| 20260503040507 | 48 | 123 | 1.0 | 4.0 | 0.00 | 0.01 | 0.01 | 84 | 1007.3 |
| 20260503040004 | 48 | 94 | 1.0 | 3.0 | 0.00 | 0.01 | 0.01 | 84 | 1007.3 |
| 20260503035505 | 48 | 108 | 1.0 | 3.0 | 0.00 | 0.01 | 0.01 | 84 | 1007.4 |
| 20260503035009 | 48 | 96 | 2.0 | 3.0 | 0.00 | 0.01 | 0.01 | 83 | 1007.4 |
| 20260503034505 | 48 | 98 | 0.0 | 3.0 | 0.00 | 0.01 | 0.01 | 83 | 1007.4 |
| 20260503034010 | 48 | 119 | 0.0 | 3.0 | 0.00 | 0.01 | 0.01 | 84 | 1007.5 |
| 20260503033507 | 49 | 134 | 1.0 | 3.0 | 0.00 | 0.01 | 0.01 | 84 | 1007.5 |
| 20260503033010 | 49 | 108 | 0.0 | 3.0 | 0.00 | 0.01 | 0.01 | 84 | 1007.6 |
| 20260503032506 | 49 | 126 | 0.0 | 3.0 | 0.00 | 0.01 | 0.01 | 84 | 1007.8 |
| 20260503032009 | 49 | 142 | 0.0 | 3.0 | 0.00 | 0.01 | 0.01 | 83 | 1007.8 |
| 20260503031508 | 49 | 111 | 0.0 | 2.0 | 0.00 | 0.01 | 0.01 | 83 | 1007.9 |
| 20260503031009 | 49 | 130 | 0.0 | 0.0 | 0.00 | 0.01 | 0.01 | 83 | 1007.9 |
| 20260503030507 | 49 | 93 | 0.0 | 2.0 | 0.00 | 0.01 | 0.01 | 83 | 1008.0 |
| 20260503030010 | 49 | 93 | 0.0 | 3.0 | 0.00 | 0.01 | 0.01 | 83 | 1007.9 |
| 20260503025505 | 49 | 114 | 0.0 | 4.0 | 0.00 | 0.01 | 0.01 | 83 | 1008.0 |
| 20260503025008 | 49 | 98 | 2.0 | 4.0 | 0.00 | 0.01 | 0.01 | 83 | 1008.1 |
| 20260503024507 | 49 | 92 | 2.0 | 4.0 | 0.00 | 0.01 | 0.01 | 83 | 1008.3 |
| 20260503024007 | 49 | 98 | 2.0 | 3.0 | 0.00 | 0.01 | 0.01 | 84 | 1008.4 |
| 20260503023512 | 49 | 138 | 1.0 | 3.0 | 0.00 | 0.01 | 0.01 | 84 | 1008.6 |
| 20260503023030 | 50 | 124 | 0.0 | 3.0 | 0.00 | 0.01 | 0.01 | 84 | 1008.5 |
| 20260503022507 | 50 | 101 | 1.0 | 3.0 | 0.00 | 0.01 | 0.01 | 84 | 1008.5 |
| 20260503022011 | 50 | 288 | 0.0 | 0.0 | 0.00 | 0.01 | 0.01 | 84 | 1008.6 |
| 20260503021512 | 50 | 288 | 0.0 | 0.0 | 0.01 | 0.01 | 0.01 | 82 | 1008.6 |
| 20260503021008 | 50 | 288 | 0.0 | 0.0 | 0.01 | 0.01 | 0.01 | 82 | 1008.8 |
| 20260503020508 | 50 | 288 | 0.0 | 0.0 | 0.01 | 0.01 | 0.01 | 81 | 1008.8 |
| 20260503020015 | 50 | 288 | 0.0 | 0.0 | 0.01 | 0.01 | 0.01 | 81 | 1008.7 |
| 20260503015508 | 50 | 288 | 0.0 | 0.0 | 0.01 | 0.01 | 0.01 | 81 | 1008.7 |
| 20260503015009 | 50 | 288 | 0.0 | 0.0 | 0.01 | 0.01 | 0.01 | 80 | 1008.8 |
| 20260503014514 | 50 | 288 | 0.0 | 0.0 | 0.01 | 0.01 | 0.01 | 79 | 1008.7 |
| 20260503014009 | 51 | 288 | 0.0 | 0.0 | 0.01 | 0.01 | 0.01 | 79 | 1008.6 |
| 20260503013503 | 51 | 288 | 0.0 | 0.0 | 0.01 | 0.01 | 0.01 | 78 | 1008.7 |
| 20260503013014 | 51 | 288 | 0.0 | 0.0 | 0.01 | 0.01 | 0.01 | 77 | 1008.8 |
| 20260503012512 | 51 | 288 | 0.0 | 0.0 | 0.01 | 0.01 | 0.01 | 77 | 1008.7 |
| 20260503012003 | 52 | 288 | 0.0 | 2.0 | 0.01 | 0.01 | 0.01 | 77 | 1008.6 |
| 20260503011516 | 52 | 288 | 0.0 | 2.0 | 0.00 | 0.00 | 0.00 | 74 | 1008.8 |
| 20260503011010 | 52 | 288 | 0.0 | 3.0 | 0.00 | 0.00 | 0.00 | 71 | 1009.0 |
| 20260503010514 | 53 | 288 | 1.0 | 9.0 | 0.00 | 0.00 | 0.00 | 70 | 1009.1 |
| 20260503010024 | 53 | 297 | 3.0 | 13.0 | 0.00 | 0.00 | 0.00 | 67 | 1009.2 |
| 20260503005508 | 54 | 295 | 5.0 | 13.0 | 0.00 | 0.00 | 0.00 | 66 | 1009.4 |
| 20260503005007 | 54 | 300 | 6.0 | 13.0 | 0.00 | 0.00 | 0.00 | 63 | 1009.4 |
| 20260503004542 | 55 | 284 | 6.0 | 13.0 | 0.00 | 0.00 | 0.00 | 59 | 1009.3 |
| 20260503004008 | 56 | 279 | 7.0 | 23.0 | 0.00 | 0.00 | 0.00 | 57 | 1009.2 |
| 20260503003505 | 56 | 271 | 9.0 | 23.0 | 0.00 | 0.00 | 0.00 | 53 | 1009.1 |
| 20260503003018 | 57 | 265 | 13.0 | 21.0 | 0.00 | 0.00 | 0.00 | 51 | 1009.1 |
| 20260503002514 | 58 | 333 | 9.0 | 19.0 | 0.00 | 0.00 | 0.00 | 49 | 1008.9 |
| 20260503002006 | 58 | 282 | 11.0 | 18.0 | 0.00 | 0.00 | 0.00 | 47 | 1008.9 |
| 20260503001522 | 58 | 258 | 8.0 | 20.0 | 0.00 | 0.00 | 0.00 | 45 | 1008.7 |
| 20260503001011 | 59 | 311 | 12.0 | 20.0 | 0.00 | 0.00 | 0.00 | 44 | 1008.8 |
| 20260503000507 | 59 | 293 | 10.0 | 19.0 | 0.00 | 0.00 | 0.00 | 43 | 1008.7 |
| 20260503000026 | 59 | 291 | 6.0 | 20.0 | 0.00 | 0.00 | 0.00 | 41 | 1008.7 |
| 20260502235508 | 60 | 327 | 11.0 | 20.0 | 0.00 | 0.00 | 0.00 | 39 | 1008.6 |
| 20260502235008 | 60 | 331 | 8.0 | 20.0 | 0.00 | 0.00 | 0.00 | 38 | 1008.6 |
| 20260502234522 | 60 | 291 | 7.0 | 20.0 | 0.00 | 0.00 | 0.00 | 37 | 1008.6 |
| 20260502234008 | 60 | 286 | 9.0 | 15.0 | 0.00 | 0.00 | 0.00 | 37 | 1008.6 |
| 20260502233508 | 61 | 305 | 6.0 | 13.0 | 0.00 | 0.00 | 0.00 | 36 | 1008.5 |
| 20260502233023 | 61 | 321 | 7.0 | 19.0 | 0.00 | 0.00 | 0.00 | 36 | 1008.5 |
| 20260502232509 | 61 | 274 | 7.0 | 19.0 | 0.00 | 0.00 | 0.00 | 36 | 1008.5 |
| 20260502232006 | 61 | 283 | 7.0 | 17.0 | 0.00 | 0.00 | 0.00 | 36 | 1008.5 |
| 20260502231526 | 61 | 295 | 10.0 | 17.0 | 0.00 | 0.00 | 0.00 | 36 | 1008.5 |
| 20260502231010 | 61 | 331 | 7.0 | 16.0 | 0.00 | 0.00 | 0.00 | 36 | 1008.5 |
| 20260502230507 | 61 | 279 | 6.0 | 20.0 | 0.00 | 0.00 | 0.00 | 35 | 1008.5 |
| 20260502230023 | 61 | 245 | 8.0 | 20.0 | 0.00 | 0.00 | 0.00 | 34 | 1008.5 |
| 20260502225510 | 61 | 260 | 8.0 | 19.0 | 0.00 | 0.00 | 0.00 | 34 | 1008.5 |
| 20260502225011 | 62 | 297 | 8.0 | 14.0 | 0.00 | 0.00 | 0.00 | 34 | 1008.5 |
| 20260502224526 | 62 | 276 | 8.0 | 16.0 | 0.00 | 0.00 | 0.00 | 34 | 1008.5 |
| 20260502224010 | 62 | 236 | 8.0 | 16.0 | 0.00 | 0.00 | 0.00 | 33 | 1008.6 |
| 20260502223508 | 62 | 281 | 10.0 | 15.0 | 0.00 | 0.00 | 0.00 | 33 | 1008.6 |
| 20260502223028 | 62 | 227 | 7.0 | 15.0 | 0.00 | 0.00 | 0.00 | 34 | 1008.6 |
| 20260502222508 | 63 | 246 | 5.0 | 12.0 | 0.00 | 0.00 | 0.00 | 32 | 1008.7 |
| 20260502222008 | 63 | 213 | 5.0 | 12.0 | 0.00 | 0.00 | 0.00 | 34 | 1008.7 |
| 20260502221527 | 63 | 278 | 4.0 | 12.0 | 0.00 | 0.00 | 0.00 | 32 | 1008.6 |
| 20260502221007 | 63 | 267 | 6.0 | 12.0 | 0.00 | 0.00 | 0.00 | 32 | 1008.6 |
| 20260502220508 | 63 | 242 | 5.0 | 10.0 | 0.00 | 0.00 | 0.00 | 32 | 1008.5 |
| 20260502220028 | 63 | 242 | 4.0 | 12.0 | 0.00 | 0.00 | 0.00 | 34 | 1008.6 |
| 20260502215508 | 63 | 269 | 7.0 | 12.0 | 0.00 | 0.00 | 0.00 | 32 | 1008.8 |
| 20260502215007 | 63 | 236 | 5.0 | 10.0 | 0.00 | 0.00 | 0.00 | 33 | 1009.0 |
| 20260502214507 | 63 | 243 | 5.0 | 11.0 | 0.00 | 0.00 | 0.00 | 32 | 1009.0 |